Wind_Speed
29 28 28 30 33 37 44 52 61 69 74 77 78 77 76 75 74 73 73 72 71 70 68 67 69 73 76 77 76 75 75 74 73 72 70 65 63 65 66 67 67 69 69 71 70 67 63 58 56 56 54 53 54 51 49 48 48 48 48 47 43 39 37 36 35 35 35 37 39 40 39 34 31 29 27 26 24 23 21 20 20 20 20 19 19 19 18 18
28 28 27 27 29 32 36 42 51 60 68 74 77 78 77 76 75 74 74 73 72 71 69 68 67 70 73 76 76 76 75 75 75 73 70 66 64 63 65 66 64 67 70 71 71 70 67 61 56 57 57 53 52 53 51 50 49 48 49 47 43 39 37 37 37 37 38 40 41 40 41 36 32 32 29 27 26 24 22 21 21 21 21 21 20 20 19 19
28 26 25 25 26 28 31 35 41 50 59 67 73 76 78 77 76 75 74 74 73 71 70 69 68 68 70 74 75 75 75 75 75 72 69 67 65 64 64 65 62 63 68 70 71 71 70 68 60 56 59 56 51 51 51 52 52 50 50 49 44 41 39 39 40 40 39 40 40 39 40 37 33 34 31 29 27 25 23 23 22 22 22 21 20 20 20 19
27 25 24 24 24 25 28 30 34 41 50 58 66 73 76 78 77 76 75 74 73 72 71 70 69 68 68 71 73 74 75 76 75 71 70 69 66 65 65 65 62 61 64 67 70 71 70 71 66 58 58 59 54 52 49 49 54 54 51 49 46 43 43 42 43 42 39 38 40 40 41 38 34 34 33 31 28 26 25 25 24 23 22 21 20 20 21 21
26 24 23 23 22 23 24 27 30 34 41 50 58 66 72 76 77 77 76 75 74 73 72 71 70 68 67 69 71 73 75 74 74 71 70 71 68 66 66 65 63 61 62 64 67 69 70 71 71 65 60 58 56 56 51 46 52 56 53 48 47 46 45 45 46 44 40 38 40 43 42 40 36 34 34 32 29 27 27 26 25 25 24 22 21 22 23 22
24 23 22 21 21 21 22 24 27 30 34 41 50 59 66 72 76 77 77 76 75 74 73 72 71 70 68 67 69 72 74 73 74 72 70 71 70 67 67 67 65 62 62 63 65 66 67 69 71 70 65 60 58 58 54 48 48 54 56 51 48 48 47 46 48 48 43 39 40 43 44 42 38 36 34 32 29 28 28 27 26 26 26 24 23 24 23 22
22 21 20 19 19 19 20 21 23 26 30 35 42 51 59 67 73 76 77 77 76 75 74 72 72 71 69 68 68 70 72 71 72 73 71 71 70 68 68 67 66 65 63 62 62 63 64 66 69 70 70 66 62 59 57 52 46 49 54 54 51 50 49 49 50 49 47 43 39 41 45 44 40 38 36 33 30 30 30 28 26 27 26 25 25 26 23 22
21 19 18 17 17 17 18 18 19 23 27 30 35 43 51 60 67 73 76 77 76 76 75 74 73 72 70 69 67 68 70 67 68 73 72 70 70 70 68 67 67 66 64 62 60 58 59 63 66 68 69 68 67 64 60 57 49 45 48 51 53 51 49 50 52 51 50 48 43 40 42 43 41 39 38 34 32 33 33 30 28 28 26 25 27 27 24 23
19 18 18 17 16 16 16 17 17 18 22 27 31 36 44 52 61 68 73 76 77 76 75 75 74 73 72 70 68 66 64 62 65 70 71 70 70 70 69 67 67 66 65 63 60 56 55 60 63 63 64 66 69 68 65 63 54 46 44 46 50 52 50 51 53 52 51 51 47 43 42 43 42 41 38 35 34 34 35 32 31 30 28 28 29 29 26 25
18 18 18 17 17 16 16 17 16 16 18 22 27 32 38 45 53 62 68 73 76 76 76 75 74 74 72 71 69 65 60 61 66 69 70 70 69 69 69 67 67 67 66 65 62 58 54 56 59 59 59 62 68 70 68 66 59 52 48 45 45 49 50 51 55 55 52 51 50 48 44 43 43 43 39 35 35 35 35 35 33 32 30 30 31 30 28 26
17 17 17 17 17 17 16 16 16 15 15 18 24 28 32 39 46 55 63 68 73 75 76 75 74 74 73 72 70 64 59 62 66 68 69 69 68 68 68 68 67 67 66 65 64 59 55 54 54 55 56 59 64 68 69 67 64 60 55 50 45 44 47 49 53 56 54 51 50 49 48 46 47 45 39 37 38 38 38 37 36 34 32 30 30 29 28 26
17 17 17 17 17 17 16 16 15 14 14 15 18 23 27 32 39 47 56 63 69 73 75 74 74 74 74 73 69 62 60 63 65 66 67 68 67 67 66 66 67 67 66 65 64 60 57 55 51 48 50 54 57 61 65 65 63 63 62 58 52 46 45 45 48 53 55 53 49 48 50 50 50 45 39 40 42 41 41 41 40 38 35 32 30 30 29 28
16 16 16 16 16 16 16 15 14 14 14 14 14 18 23 27 32 40 49 57 63 69 72 73 74 75 75 73 67 63 63 64 65 65 65 66 66 65 65 65 65 65 64 64 64 61 58 57 53 49 45 45 50 55 60 62 58 58 62 63 60 53 45 42 43 46 51 52 50 51 51 49 49 46 42 45 45 44 43 43 43 42 39 36 34 32 31 31
17 16 16 15 15 15 15 15 14 13 14 14 14 16 20 24 29 35 42 50 58 64 69 72 74 74 74 72 67 65 67 65 63 63 64 63 64 64 64 64 64 64 63 62 64 63 61 59 56 53 48 42 43 47 51 56 55 54 57 62 65 59 47 42 41 41 44 48 49 53 53 49 48 48 46 48 48 45 44 43 44 44 42 40 37 36 35 33
17 16 16 16 15 14 14 14 13 13 13 14 14 15 17 21 25 30 36 43 50 58 64 69 72 73 73 71 68 68 69 66 62 62 63 62 62 63 63 63 63 62 63 61 62 63 62 59 57 56 54 48 43 41 42 47 50 52 56 62 66 62 54 49 45 41 41 42 45 51 55 49 48 49 48 49 50 48 47 44 44 45 44 43 40 39 38 37
18 16 16 16 15 15 14 13 13 13 13 14 14 14 15 18 22 27 32 37 44 51 59 65 69 72 72 70 70 70 69 66 63 62 62 61 61 61 62 62 61 61 61 61 61 62 62 59 57 56 56 55 50 43 38 40 44 47 52 60 64 64 62 58 53 48 44 42 41 46 52 49 46 49 50 50 51 52 51 48 46 46 46 45 44 42 41 40
18 16 15 15 15 15 14 14 13 13 13 14 14 13 14 15 19 24 29 33 39 45 52 60 65 70 71 70 71 71 69 66 65 63 62 61 60 60 60 60 60 60 58 59 60 61 62 60 57 56 55 55 53 47 42 42 44 46 49 55 59 62 64 62 59 56 53 51 46 43 48 49 45 46 49 51 52 53 53 52 50 50 50 49 47 45 43 42
18 16 14 13 14 15 15 14 13 13 14 14 13 12 12 14 17 22 26 30 35 42 48 55 61 67 69 69 70 70 69 67 65 64 63 61 60 59 60 58 58 59 57 57 59 59 60 61 59 57 56 54 54 53 47 43 44 45 44 46 50 55 59 62 61 58 59 59 55 49 46 46 46 46 47 49 52 54 54 53 51 51 52 52 50 47 44 42
18 17 15 13 14 15 16 15 14 14 15 15 14 12 12 12 15 19 24 28 31 38 44 50 56 62 65 67 68 68 68 67 66 65 63 62 60 59 59 59 57 57 58 57 58 58 58 59 59 58 57 55 56 56 48 42 41 39 39 41 42 46 50 55 56 55 56 59 60 57 51 45 44 46 47 48 51 54 55 53 52 50 50 51 51 49 45 42
18 17 16 14 14 15 16 16 15 14 14 15 14 12 12 11 13 17 22 25 29 34 40 46 51 57 61 63 65 66 67 67 66 64 64 62 61 59 58 60 58 56 56 57 57 57 56 57 59 57 55 54 56 56 52 50 46 41 42 43 40 41 44 47 51 51 50 54 58 60 59 52 46 45 46 48 51 52 53 54 52 50 48 47 48 48 45 41
15 16 16 15 15 15 16 17 15 13 14 15 14 13 12 11 11 15 19 23 27 31 37 43 49 54 58 60 61 63 65 65 65 64 64 62 60 59 58 59 59 56 54 54 55 57 57 58 58 56 52 50 53 55 55 56 54 49 48 46 43 40 41 41 45 48 48 50 54 56 61 60 53 49 46 47 51 52 52 53 52 50 47 45 45 46 44 41
14 13 14 14 14 14 15 16 14 13 14 14 12 11 10 8 9 12 17 21 25 29 34 40 46 50 55 57 58 61 63 63 63 63 63 62 60 58 57 57 58 58 55 52 53 56 58 59 55 53 52 51 52 54 56 56 56 55 51 50 49 43 40 40 40 44 46 48 52 54 59 62 60 57 52 48 50 53 54 54 52 51 47 44 44 44 43 41
15 12 11 11 12 12 13 14 12 12 13 12 11 10 8 6 6 8 13 18 22 26 31 38 43 47 50 53 55 59 61 60 61 62 61 61 59 57 56 56 55 56 56 53 53 55 58 57 53 51 52 53 53 55 58 57 58 58 53 52 52 49 46 43 39 41 42 44 50 53 56 60 60 60 57 52 50 51 55 56 54 53 49 44 42 43 43 42
14 12 11 9 9 10 11 11 10 11 12 11 10 9 6 3 3 5 9 14 18 23 29 36 41 44 47 49 51 54 57 58 58 59 60 60 58 57 55 54 54 54 55 53 52 54 54 54 52 50 51 53 54 56 58 59 60 60 59 56 54 52 52 48 43 44 43 43 47 51 57 61 59 59 58 56 55 54 54 57 57 55 53 47 44 45 45 44
16 12 11 9 9 9 8 8 9 11 11 9 8 8 6 3 2 3 6 9 14 20 27 33 38 41 44 46 48 50 53 55 57 56 57 58 57 56 54 53 53 53 52 52 52 53 52 51 50 50 51 53 54 55 56 58 59 59 61 60 57 53 52 52 50 49 50 48 46 47 56 62 60 60 60 57 58 57 55 57 58 57 55 51 48 48 48 47
19 14 12 11 10 7 6 8 10 11 9 7 6 7 7 5 1 2 3 5 8 15 23 29 34 38 41 43 44 48 49 50 55 55 54 54 52 52 53 52 52 51 50 50 52 53 52 51 50 50 51 52 53 54 54 56 58 59 59 59 60 58 55 56 55 53 54 53 49 49 54 60 60 60 62 60 60 60 58 58 58 57 57 55 52 51 51 51
22 17 14 12 11 9 9 10 11 11 8 6 5 5 6 4 3 4 6 6 2 8 18 24 29 34 37 39 41 45 45 45 49 53 52 52 49 48 51 51 50 50 48 49 51 52 50 51 52 51 51 51 51 51 51 53 57 59 57 55 58 61 60 60 59 58 58 56 56 56 54 58 61 58 57 60 62 63 63 60 58 58 58 57 56 54 55 55
25 19 16 15 13 13 13 13 12 11 8 5 4 4 3 4 6 8 11 9 5 2 13 19 24 29 32 36 38 40 42 40 41 46 48 50 48 46 48 49 48 48 47 47 49 49 48 50 52 53 53 53 50 47 47 51 55 56 55 53 54 58 60 60 60 61 62 61 62 61 56 59 64 59 53 55 59 62 62 62 61 61 61 61 60 59 59 59
26 20 17 16 16 15 16 15 14 11 8 4 4 5 4 6 8 12 12 11 10 5 8 14 21 25 28 32 36 37 39 38 36 37 42 46 46 44 44 45 45 44 45 46 45 46 48 48 50 52 54 54 50 46 45 48 50 51 53 53 52 54 58 58 58 59 61 63 64 63 60 62 64 60 54 54 57 59 59 60 62 63 63 64 64 64 64 63
27 21 17 15 16 17 17 17 16 11 9 6 5 6 6 6 8 12 11 12 11 8 6 11 17 23 25 27 33 36 37 38 35 34 36 38 40 40 40 40 40 39 40 43 44 45 47 46 47 50 52 53 52 49 48 47 47 47 50 52 52 53 55 56 56 54 55 62 66 64 63 65 66 62 57 55 56 55 56 58 60 62 63 64 65 66 67 67
28 24 19 16 16 17 18 18 16 13 10 8 7 8 7 6 6 10 9 12 12 10 8 10 13 18 21 23 29 33 35 37 36 34 34 34 36 36 36 38 38 38 37 38 41 43 45 45 45 47 49 51 52 53 53 51 49 47 47 49 52 52 52 55 56 53 53 59 64 64 62 66 70 67 61 58 55 53 54 56 58 59 59 60 62 64 66 67
30 27 23 19 16 17 19 19 19 17 14 11 10 10 10 9 8 10 10 13 13 12 11 11 11 14 17 19 25 31 34 36 36 35 33 34 37 36 36 38 37 38 38 35 37 41 42 42 42 43 46 48 50 52 53 52 51 50 48 48 49 50 50 53 57 58 59 61 63 63 60 61 68 70 64 59 57 55 55 55 56 57 57 57 57 59 61 63
31 29 26 22 18 17 17 18 20 20 18 16 15 14 13 9 7 10 12 14 12 12 14 12 10 11 12 15 21 28 33 36 37 37 33 31 37 38 37 38 35 34 37 34 34 38 39 40 40 41 42 44 46 48 50 51 52 52 52 51 51 50 50 52 53 55 59 61 61 61 61 60 65 69 66 61 61 62 59 56 56 58 58 57 56 56 57 59
34 31 28 25 21 18 17 17 19 20 19 17 16 17 16 10 7 8 11 16 14 11 13 14 11 10 10 12 18 24 30 35 37 39 34 26 32 38 37 38 37 33 34 36 36 35 35 38 39 41 41 41 42 44 45 48 50 51 51 52 52 51 51 51 51 52 54 54 55 57 59 62 63 65 66 64 66 67 64 62 61 60 59 58 58 58 58 58
36 34 31 27 23 19 17 16 17 18 18 17 16 18 18 13 7 5 9 16 15 10 11 14 13 9 9 10 15 20 25 31 34 39 37 26 26 36 37 38 40 36 31 33 36 35 34 34 34 37 40 41 41 41 41 44 47 48 48 51 53 52 52 53 54 55 54 54 56 57 59 59 59 61 61 62 66 67 66 66 65 63 62 62 61 60 60 61
37 35 33 30 25 21 18 15 15 16 17 17 17 18 19 14 9 6 10 16 15 11 11 13 12 10 11 10 11 15 21 26 30 36 39 32 26 32 38 37 40 40 34 29 32 35 34 33 31 32 35 37 40 41 42 43 44 45 47 49 49 48 49 53 55 55 56 60 61 60 60 60 60 62 61 61 64 65 65 66 66 65 66 66 65 64 64 64
36 36 34 32 29 25 21 16 13 14 15 16 17 18 19 17 12 9 11 14 15 12 10 10 11 10 11 11 10 11 16 22 25 30 37 37 30 28 34 36 37 41 39 33 32 34 33 33 33 33 32 33 36 39 41 43 44 45 46 46 46 47 48 49 51 52 54 59 61 59 60 59 59 63 63 61 62 63 64 66 66 66 68 69 68 67 67 67
34 35 34 34 32 29 26 21 15 12 13 15 16 16 18 19 15 12 11 14 17 14 11 10 10 10 10 11 11 11 13 18 21 25 32 38 36 30 30 32 33 37 40 38 36 35 35 36 35 35 36 36 36 38 40 41 43 44 45 44 46 49 49 48 49 50 51 54 56 55 56 56 56 58 58 56 56 57 59 62 64 65 67 70 71 71 70 69
33 33 33 33 33 31 29 27 21 15 12 13 14 14 16 19 17 13 11 12 15 15 12 11 10 10 10 10 11 9 10 14 16 19 25 32 37 35 32 31 30 31 34 37 37 36 37 39 38 36 37 38 39 38 38 39 41 42 43 44 46 47 48 50 51 51 51 53 54 53 53 53 52 51 50 51 53 54 55 57 60 62 63 66 68 71 72 71
32 31 32 32 32 31 30 29 26 22 16 12 12 13 14 16 17 15 12 11 13 13 13 12 10 10 10 9 10 9 8 10 11 13 18 25 31 35 36 35 34 33 32 33 33 32 33 37 39 38 37 39 40 39 39 39 40 41 41 43 45 44 45 49 51 52 53 55 56 56 57 55 52 50 49 48 51 54 54 55 57 59 60 61 63 65 68 70
32 31 30 30 30 30 30 30 29 27 23 17 13 12 12 13 14 13 12 11 11 11 11 10 10 9 9 10 9 9 9 9 9 9 12 17 22 27 31 33 34 36 35 35 35 32 31 32 35 37 38 38 39 40 41 41 42 42 42 42 43 44 45 47 49 49 50 54 57 59 60 58 55 55 55 53 52 54 55 56 57 59 60 60 60 61 62 64
32 31 30 29 28 28 28 29 29 28 27 24 19 14 11 10 10 10 9 8 8 8 8 8 8 7 7 6 7 8 8 8 9 9 9 12 16 21 26 28 29 32 33 36 38 38 37 35 34 35 36 36 37 39 41 42 43 44 45 44 44 46 48 48 49 47 45 48 51 55 60 59 55 55 56 55 55 56 58 60 59 60 62 61 60 61 61 61
31 31 31 29 27 27 27 27 27 27 26 26 24 20 16 12 9 7 5 4 4 4 5 5 5 4 4 3 3 5 7 7 8 8 7 9 11 14 18 22 25 28 29 32 34 37 39 40 39 38 38 37 37 38 39 41 43 44 46 47 47 49 50 51 52 51 49 47 45 49 56 57 54 54 55 55 55 55 57 60 61 62 64 65 64 64 65 64
30 30 30 30 28 26 25 25 25 25 25 25 24 23 21 18 14 10 6 3 1 1 2 3 3 3 2 3 2 2 4 5 5 6 6 7 9 10 12 15 19 22 25 28 29 31 35 38 40 41 41 41 41 41 40 40 41 44 46 47 49 50 51 53 54 55 58 56 51 51 55 53 50 51 53 54 56 57 56 57 59 61 63 65 65 65 66 66
28 28 28 29 28 27 25 24 23 23 23 23 23 22 22 21 19 17 14 10 7 3 0 2 4 5 6 6 7 6 6 7 7 8 8 8 8 9 9 11 13 16 20 23 26 28 31 33 35 37 38 39 41 44 45 44 44 44 45 47 49 50 52 55 57 59 62 61 59 60 61 56 52 52 54 54 55 57 58 58 59 60 62 64 65 66 66 65
27 27 27 27 27 27 26 25 23 22 21 21 21 21 20 20 20 19 18 16 14 12 8 4 0 4 8 10 11 11 11 12 12 12 12 12 11 12 13 13 14 15 17 19 22 25 28 30 32 34 35 36 37 40 43 47 48 48 48 48 49 50 52 55 58 61 63 64 66 67 65 62 58 54 55 55 54 53 54 55 56 58 60 62 63 64 66 67
25 26 26 26 25 26 25 25 24 22 21 20 19 19 19 18 18 17 17 16 16 14 13 11 8 4 1 5 9 12 15 17 17 17 17 17 17 17 17 18 19 20 20 21 22 25 27 29 32 34 35 36 37 38 40 44 47 48 50 50 51 51 53 55 58 59 60 65 70 69 67 69 67 60 57 56 54 53 52 51 52 55 58 60 61 62 64 66
25 24 25 25 24 24 24 24 23 22 21 20 19 18 17 17 16 16 15 15 14 13 13 12 11 9 7 5 2 4 9 13 16 19 21 22 23 23 24 24 24 24 25 25 26 27 28 30 32 35 36 37 38 39 41 44 46 47 49 50 51 52 53 56 59 59 60 65 69 66 67 71 71 69 66 64 61 61 61 60 60 61 62 64 65 67 67 68
24 23 23 23 23 23 22 22 22 22 21 20 19 18 17 16 15 15 14 13 12 12 11 10 10 9 8 7 6 4 3 4 7 10 14 16 20 23 25 27 28 29 30 31 31 32 33 33 34 35 37 38 38 40 43 46 49 50 51 51 52 52 54 56 59 60 62 66 67 66 68 70 69 70 72 72 72 73 74 74 73 72 71 70 70 71 73 74
24 23 23 22 22 21 21 21 21 21 20 19 18 17 16 15 15 15 14 12 11 10 9 8 8 7 6 6 6 6 6 6 6 6 6 8 10 13 16 20 23 26 28 30 33 35 37 38 39 40 41 41 42 44 45 47 49 52 53 54 55 56 56 58 59 59 60 62 63 63 68 71 69 68 71 74 76 78 80 82 82 80 79 78 77 76 75 76
24 23 22 22 21 21 20 20 20 20 20 19 18 17 16 15 14 13 13 12 11 10 9 9 8 7 6 6 6 6 6 7 7 6 7 7 8 9 11 12 15 18 20 23 26 28 31 34 36 40 44 46 47 47 47 49 53 55 56 56 57 59 59 59 59 59 61 63 64 65 69 70 69 69 72 74 76 78 80 82 83 84 84 85 85 84 82 80
24 23 22 22 21 20 20 19 19 18 18 18 18 18 18 16 15 13 12 11 10 9 9 8 9 8 7 7 6 6 7 7 7 7 8 9 9 11 12 12 14 15 16 20 22 23 25 27 28 31 36 39 41 41 42 47 50 49 51 54 55 57 59 60 61 61 62 64 66 68 69 70 70 71 74 76 77 78 79 81 83 84 84 84 85 87 87 87
Wind_Direction
305 304 296 281 268 258 249 242 236 232 230 229 229 229 229 229 229 229 229 229 230 231 232 231 230 230 230 231 231 230 231 231 232 233 232 232 233 234 236 236 235 233 232 233 230 225 220 217 215 214 214 217 219 221 223 224 222 222 224 224 220 218 220 219 224 234 238 233 232 237 235 228 226 229 231 231 228 228 230 231 232 231 230 230 231 232 232 233
303 305 303 292 276 266 257 248 241 235 231 229 228 227 227 228 228 228 228 228 229 229 230 231 231 230 230 230 231 230 230 230 231 232 232 233 233 234 236 237 237 234 232 233 233 232 228 224 218 215 214 214 217 220 224 226 225 224 224 224 220 220 220 219 223 233 238 232 229 234 234 228 226 227 228 229 228 225 227 229 230 231 231 230 232 234 234 234
300 301 303 299 286 272 264 255 247 239 234 230 228 227 226 226 226 227 227 227 227 228 229 230 230 230 229 230 230 230 230 230 230 231 232 234 233 234 235 237 238 235 233 233 234 235 234 231 225 219 216 215 216 217 221 226 227 225 224 222 220 221 222 220 224 232 236 229 226 232 233 228 225 227 227 228 227 224 224 227 227 229 232 230 231 235 236 235
295 296 298 300 293 280 270 262 254 245 238 233 229 227 226 225 225 225 226 226 227 227 227 228 229 230 229 229 230 230 230 230 229 229 231 233 233 233 234 237 238 236 235 234 234 235 235 235 231 225 220 217 218 218 220 224 226 226 225 222 221 224 225 223 225 231 236 229 223 229 232 229 226 226 226 228 228 225 224 227 229 229 232 232 231 234 236 236
289 291 294 297 296 287 276 267 259 251 243 237 232 228 226 225 224 224 224 225 225 226 226 227 228 229 229 229 229 230 230 229 228 228 229 231 231 232 233 235 237 237 236 234 233 235 235 236 235 232 226 220 219 221 222 222 223 224 225 224 224 227 227 226 226 229 234 231 225 228 230 229 228 227 227 228 229 228 227 228 231 232 233 232 232 234 235 235
285 288 293 296 296 293 285 274 263 257 249 241 235 231 227 225 224 223 223 223 224 225 225 225 227 228 228 228 228 229 229 228 228 227 228 230 230 231 232 234 236 236 237 235 233 234 236 236 236 236 233 227 222 222 224 223 221 221 223 225 224 227 229 228 228 228 231 231 228 227 227 229 230 229 227 227 230 232 231 229 231 233 234 234 233 235 236 236
285 286 293 298 300 299 295 285 271 261 254 246 239 234 230 227 224 223 222 222 223 224 224 224 225 226 227 228 228 228 228 227 228 228 227 229 230 230 232 233 235 236 237 237 234 234 236 236 236 238 238 234 229 226 226 224 223 219 219 223 225 228 231 231 230 229 229 230 229 225 226 229 231 231 226 224 230 236 236 232 230 233 234 236 236 236 236 236
287 286 293 299 306 308 303 296 282 267 257 250 244 237 232 229 226 223 222 221 221 222 223 223 224 225 226 227 227 227 226 226 228 229 228 227 228 229 230 232 234 236 237 238 237 234 235 236 236 237 239 238 236 235 232 228 225 220 216 219 224 228 231 233 232 230 230 230 229 226 226 231 233 232 228 223 229 237 240 236 231 232 233 234 237 237 236 235
292 287 293 300 308 314 312 305 294 279 264 253 247 241 235 231 227 225 222 221 220 221 222 223 223 224 225 225 226 226 225 226 228 229 228 227 227 229 229 230 232 234 236 237 238 235 233 235 237 238 239 239 239 240 239 233 227 222 218 217 220 226 230 234 234 231 230 231 230 227 228 233 236 235 231 227 230 236 242 240 233 232 231 230 234 235 234 233
296 291 296 302 309 313 315 312 305 295 277 259 249 245 238 233 229 226 224 221 220 220 221 222 223 224 224 225 226 225 222 225 227 227 228 228 227 228 228 229 231 232 234 236 238 236 234 234 236 238 238 238 240 241 242 239 232 227 224 219 217 221 223 229 235 233 230 231 232 230 228 231 235 236 232 230 233 236 241 244 238 234 232 231 233 236 236 235
300 297 300 305 310 311 312 314 313 306 291 268 252 246 241 235 231 228 225 222 221 220 220 221 222 223 223 224 224 223 221 225 227 227 228 228 227 228 228 229 230 231 233 235 237 237 234 233 235 239 241 239 239 241 244 243 239 235 232 225 220 219 217 222 231 233 231 231 232 232 229 229 232 235 231 232 237 238 239 243 241 238 234 232 235 239 240 239
305 305 305 307 310 311 311 312 315 310 299 280 257 246 242 236 232 228 226 223 221 220 220 220 221 222 222 223 222 221 222 225 227 227 227 227 227 227 228 229 229 231 231 233 236 237 235 234 232 236 241 241 240 241 243 245 244 242 239 234 228 223 216 216 224 229 231 231 232 233 232 230 233 233 231 233 238 239 238 239 240 240 237 233 233 237 239 238
311 311 312 312 312 312 312 312 315 315 306 295 275 254 244 238 232 228 226 224 222 221 220 220 220 221 221 222 220 220 222 224 225 226 227 227 226 226 228 228 229 230 231 231 234 236 235 234 231 229 234 239 240 240 242 245 246 245 244 241 236 229 217 213 218 222 229 233 233 234 234 232 234 232 230 233 237 237 237 238 240 241 241 237 234 235 236 236
313 313 314 316 317 315 314 314 315 316 313 305 293 271 252 241 234 228 225 224 223 221 220 220 220 220 221 220 219 219 221 223 224 226 227 227 226 226 226 227 228 229 230 230 231 234 234 233 232 229 228 233 238 239 241 244 245 245 245 245 243 234 221 218 221 217 221 229 232 235 235 232 233 232 228 232 236 237 237 238 240 242 244 242 238 236 235 237
314 312 312 314 317 316 316 315 315 316 316 311 300 283 261 246 236 228 224 223 222 221 221 220 220 220 220 219 218 219 221 222 223 225 227 227 226 226 226 226 227 227 228 228 229 232 234 233 232 231 229 229 233 235 236 242 245 245 245 246 246 240 230 228 229 222 217 223 227 232 234 230 230 231 229 229 233 235 236 236 239 242 244 244 242 239 237 237
314 312 311 312 314 314 315 316 317 317 317 315 306 292 271 251 240 230 223 220 219 220 221 220 219 220 220 218 218 219 220 221 221 223 226 227 226 225 226 226 225 226 227 229 228 229 232 231 230 231 231 229 230 230 231 236 241 243 244 246 246 244 240 236 236 233 227 226 226 228 232 229 226 229 230 231 232 235 237 236 238 241 244 245 244 243 241 240
309 311 313 315 316 317 316 314 316 319 320 317 311 300 280 257 244 234 224 218 217 217 219 219 219 219 219 218 219 219 220 220 220 222 224 225 225 224 225 226 225 224 225 227 228 227 229 230 228 227 229 230 229 229 228 230 236 242 245 246 247 247 245 241 240 240 237 236 233 230 230 226 225 228 230 233 234 235 237 237 238 240 243 244 245 244 244 245
301 305 310 319 324 323 320 316 315 319 321 319 314 306 288 262 245 235 225 219 216 215 216 217 218 218 218 218 219 219 219 219 220 221 222 224 224 224 224 225 225 224 224 225 227 227 227 229 229 226 227 229 229 228 227 229 236 242 245 247 247 247 246 244 243 243 242 242 239 237 233 225 223 227 229 232 235 235 236 238 238 239 241 243 245 245 244 245
291 295 301 313 325 327 324 320 316 319 323 321 315 308 294 268 247 235 227 220 216 214 214 214 217 217 216 217 218 219 219 219 220 220 221 223 224 224 223 224 224 224 223 224 226 228 227 228 229 227 227 229 232 232 229 232 235 236 238 240 239 240 242 243 244 243 244 245 244 242 239 230 223 225 227 229 233 235 236 236 236 237 238 240 243 245 244 243
284 285 291 301 316 325 327 322 317 320 326 324 318 310 299 276 250 234 226 220 215 212 210 211 213 214 214 216 217 218 219 219 219 220 221 222 222 223 223 223 223 223 223 223 224 227 227 228 228 230 230 230 234 235 233 235 235 231 232 234 233 232 234 238 241 240 240 244 245 244 244 239 229 226 228 228 230 234 236 236 236 236 237 238 241 244 245 243
294 280 281 291 305 317 326 322 318 324 329 327 321 314 305 282 250 231 222 217 215 211 208 207 209 210 212 213 215 216 217 218 218 219 220 221 222 222 223 223 223 223 223 222 223 225 227 228 229 231 232 228 229 233 235 237 238 237 235 235 234 231 231 235 239 239 238 240 243 244 244 242 236 232 232 232 232 233 235 237 236 236 237 238 239 242 245 245
327 299 285 289 298 311 324 320 318 329 333 329 324 320 311 283 247 230 219 216 216 211 205 204 205 207 210 212 214 215 216 217 217 219 220 221 222 222 223 224 224 225 224 222 222 224 226 229 230 230 229 226 225 228 232 234 236 240 241 239 237 235 234 234 236 239 238 239 240 242 244 244 241 238 235 235 235 234 234 235 236 237 238 239 241 242 245 246
346 335 315 303 302 312 320 318 322 334 337 338 332 327 317 282 243 227 216 213 215 211 205 202 201 203 206 209 213 214 214 216 217 218 220 221 222 222 223 225 225 225 226 224 224 226 228 230 230 228 226 227 226 225 228 231 233 236 240 241 239 239 239 235 234 237 238 239 239 239 241 242 242 241 238 237 239 237 234 233 234 236 237 239 242 244 244 245
352 353 345 331 320 322 320 320 333 343 345 349 345 341 336 294 250 229 216 210 210 209 205 201 198 200 203 205 210 213 213 213 215 217 219 220 221 222 222 224 224 225 226 226 226 227 229 230 228 228 227 227 227 226 227 230 233 234 236 240 241 241 241 238 236 237 238 237 237 236 238 240 241 241 239 238 239 240 237 234 232 233 234 236 240 243 243 243
4 2 359 351 342 335 332 340 351 354 355 359 360 4 5 343 295 222 204 203 206 207 205 201 198 198 201 203 207 211 212 212 213 215 218 219 221 222 222 223 224 225 226 227 227 227 228 228 227 228 228 227 228 229 229 231 234 235 235 238 242 243 243 242 242 243 242 238 235 236 240 240 239 239 239 237 238 240 239 237 234 232 232 234 237 242 245 245
14 11 7 3 3 3 8 11 3 0 5 3 5 13 8 2 23 162 169 185 204 206 203 201 199 200 201 202 204 207 209 211 212 213 216 218 219 221 222 223 224 225 225 227 227 227 227 228 227 227 228 228 229 229 230 231 234 236 237 237 240 243 244 245 246 247 246 242 238 239 244 243 237 237 240 240 238 239 241 240 237 234 234 234 236 241 245 248
19 21 23 26 34 39 30 19 6 4 10 7 11 16 9 29 112 130 129 130 157 207 203 200 200 202 202 201 202 204 205 209 212 212 214 215 216 219 222 223 224 225 225 226 228 228 228 228 228 228 229 229 230 230 230 232 233 236 238 237 237 241 243 245 246 248 248 247 244 243 246 245 238 236 239 239 239 239 240 241 240 239 239 238 240 242 245 247
23 32 42 47 48 42 29 18 10 7 10 16 26 23 27 85 114 130 128 105 60 178 197 197 197 200 202 200 201 202 202 205 209 210 212 214 215 218 221 222 224 225 226 228 230 230 229 228 228 228 229 230 232 233 232 232 233 235 237 237 236 239 242 244 245 247 249 250 249 247 247 247 242 237 233 234 239 239 238 240 242 241 242 242 243 244 245 247
25 35 46 48 42 34 25 17 11 10 14 27 38 33 64 99 119 139 127 84 64 103 176 191 193 196 200 200 201 200 198 199 201 204 210 213 214 217 220 221 223 225 227 228 229 229 229 228 228 229 230 230 231 230 229 230 231 231 234 237 237 237 240 243 245 247 249 250 250 249 250 251 245 237 232 232 236 240 239 239 240 242 243 244 245 246 246 246
26 30 36 38 35 27 21 16 15 23 32 40 46 49 79 105 128 143 119 74 81 105 146 179 189 194 198 200 201 199 197 197 195 197 205 209 212 216 218 220 222 224 227 228 227 228 229 228 228 229 231 231 229 228 228 229 231 230 232 236 238 238 238 242 245 247 248 250 250 250 252 255 249 239 235 235 234 237 238 239 240 241 243 244 246 246 247 247
26 27 27 28 28 24 21 21 25 37 44 49 57 59 75 90 120 142 114 79 95 109 130 162 175 184 193 200 200 198 196 195 193 191 196 202 206 212 213 214 218 220 224 228 227 228 229 228 228 229 231 232 231 231 232 233 234 234 233 235 238 240 240 241 243 244 245 248 251 251 251 255 253 243 238 239 238 237 237 238 240 241 242 244 245 246 247 248
26 28 28 26 27 27 29 34 40 47 53 60 65 62 69 81 107 130 104 82 96 102 116 147 157 169 190 201 198 196 193 192 191 186 187 196 201 206 210 210 213 218 221 225 227 227 228 228 228 229 230 232 232 233 234 235 235 235 234 234 237 239 241 242 243 244 246 249 252 253 253 254 255 250 244 242 244 245 243 240 239 241 243 244 244 246 247 248
27 29 30 30 32 35 39 45 48 50 56 64 64 59 66 80 104 116 91 79 91 95 100 120 138 158 184 198 195 193 191 190 189 184 183 193 199 202 206 207 209 216 219 222 225 226 227 228 228 229 230 232 234 234 235 236 236 236 237 238 239 240 240 243 245 246 248 250 252 253 254 254 255 254 250 246 249 253 251 247 245 244 244 245 246 247 248 249
28 29 32 34 38 43 46 49 50 51 55 61 61 57 60 70 93 107 90 79 88 97 99 107 118 143 169 185 190 192 192 191 191 188 183 186 197 201 205 208 208 213 219 221 225 226 227 229 230 231 232 233 236 236 237 237 237 237 239 240 240 240 240 243 245 247 249 251 251 251 252 254 255 256 254 251 252 256 255 253 253 250 248 247 247 248 248 248
29 30 32 35 39 46 51 52 51 51 54 58 59 54 56 68 83 104 94 80 82 94 106 109 113 133 154 165 179 188 192 194 194 193 187 182 193 199 202 207 209 211 216 221 223 224 225 226 229 230 231 232 234 236 236 236 237 237 238 240 241 241 243 245 246 248 251 251 250 250 251 255 257 257 256 253 253 256 257 256 257 256 254 251 249 248 248 249
29 30 32 34 37 42 49 57 55 52 54 57 59 55 54 62 75 101 101 83 76 87 108 111 108 123 144 148 163 180 190 195 198 199 195 191 195 200 202 205 206 207 211 215 219 222 223 223 225 227 228 228 230 233 235 235 236 235 235 239 242 243 244 246 247 248 250 251 250 251 252 255 256 256 256 255 253 256 258 259 259 258 257 257 254 252 250 251
30 31 33 34 36 37 41 51 59 57 56 56 58 58 53 55 73 108 109 85 73 81 104 111 99 113 143 150 148 161 182 194 198 201 202 201 201 205 208 210 210 211 212 215 219 221 222 222 224 226 227 228 228 231 234 235 236 235 235 237 240 241 241 243 247 248 248 251 252 252 252 253 254 255 256 256 255 256 259 260 261 261 259 258 258 256 254 254
30 32 33 34 36 37 38 43 52 60 63 60 59 61 56 56 73 109 111 84 71 75 96 108 97 102 132 152 147 141 165 186 194 200 204 206 206 205 206 208 213 216 218 221 224 227 228 227 228 231 232 233 232 232 234 236 237 238 237 237 238 241 241 241 244 246 247 250 252 253 253 252 252 253 254 255 255 256 257 258 259 260 259 259 258 258 258 256
30 32 33 34 36 37 38 41 45 54 64 67 65 64 62 61 72 95 102 83 72 74 90 101 97 97 115 148 164 152 149 168 187 199 204 208 210 211 211 211 212 215 218 221 225 229 232 231 231 233 234 234 234 235 236 237 239 240 240 239 239 241 244 245 245 246 248 250 252 253 253 252 252 252 253 253 253 253 254 255 256 258 258 259 259 259 260 260
29 31 33 34 36 37 38 41 43 48 56 65 71 70 68 67 73 85 89 81 78 79 86 95 96 97 100 123 158 171 164 166 179 195 203 209 213 217 221 223 223 223 221 221 224 228 231 230 230 232 233 233 233 234 236 238 240 241 241 242 241 241 244 247 248 248 250 252 254 255 255 254 253 253 251 250 251 252 253 254 255 257 258 258 259 260 260 261
28 31 33 34 35 36 38 40 42 46 51 58 67 72 73 72 76 84 85 80 83 84 85 91 92 95 101 103 120 147 166 181 191 196 202 211 216 219 222 226 228 230 229 229 229 229 230 231 230 231 233 234 236 236 236 238 240 240 241 242 242 241 242 245 248 248 251 254 255 257 258 256 256 256 254 251 250 251 253 254 254 256 258 258 259 259 259 259
28 31 33 34 35 36 37 39 40 43 48 52 58 65 72 78 83 91 91 83 83 85 87 91 87 93 110 101 96 117 136 159 183 193 202 210 217 221 225 227 230 232 233 234 234 235 236 236 234 234 234 235 238 239 238 240 242 242 242 242 242 242 242 244 246 245 248 252 254 256 258 256 253 254 255 254 252 251 252 253 254 254 256 257 257 258 258 258
29 30 32 33 35 36 36 37 38 41 44 48 52 58 62 70 84 98 106 103 93 92 98 102 101 104 120 118 99 115 127 143 165 180 187 197 209 220 226 229 231 232 234 236 237 239 241 242 241 241 239 238 240 242 242 243 244 245 245 244 244 244 244 245 246 245 245 247 249 253 255 254 252 252 252 253 253 251 250 251 252 253 254 255 256 257 258 258
28 29 31 32 33 35 36 36 37 38 41 44 48 52 55 58 65 71 77 96 124 182 184 168 163 167 181 206 213 189 173 175 185 195 195 195 206 216 222 227 231 233 235 237 238 240 242 244 244 245 245 243 243 244 245 247 248 247 248 247 247 248 247 247 247 248 249 247 246 249 251 251 251 252 251 251 253 253 251 251 252 252 253 254 255 258 259 259
24 27 29 31 32 34 36 36 37 36 37 40 43 46 50 52 54 56 57 60 57 54 193 220 217 219 225 228 234 239 231 230 232 231 230 229 226 227 230 234 235 236 239 240 241 242 244 245 245 246 246 246 245 245 247 249 251 251 250 250 251 251 251 251 250 250 251 250 248 249 251 250 249 251 253 253 254 255 254 254 253 252 253 253 253 256 258 259
19 22 25 27 29 31 33 35 36 37 36 37 38 40 44 47 49 50 51 54 54 55 56 52 86 224 231 232 235 242 244 243 243 243 247 248 247 246 245 244 243 242 242 242 242 242 244 245 246 246 246 246 247 248 249 250 251 252 252 253 253 253 253 254 253 252 253 254 251 250 253 253 250 249 251 252 252 253 254 252 252 251 252 252 251 252 253 255
15 17 20 22 25 26 29 31 33 35 36 37 37 37 38 40 43 45 48 51 52 52 54 53 52 52 310 242 237 242 246 247 247 249 251 251 252 252 250 248 247 247 247 246 245 244 243 244 246 247 247 247 248 250 252 253 253 252 252 253 253 255 255 255 256 256 256 257 255 252 253 255 253 248 247 246 246 248 249 248 248 249 250 251 252 252 251 251
11 13 14 17 19 21 23 25 27 30 32 34 35 36 36 36 37 39 41 45 48 48 48 50 49 48 43 32 359 256 250 251 252 253 253 254 255 256 255 255 254 254 255 255 253 252 250 249 249 250 250 251 253 253 254 255 255 255 254 253 254 256 258 258 259 259 259 261 260 257 256 256 256 254 250 248 247 248 249 250 251 251 251 251 251 251 250 249
9 9 10 11 13 16 17 19 21 23 25 28 30 32 34 33 34 37 37 38 40 40 40 43 42 40 39 33 25 11 340 302 276 266 264 262 261 261 261 261 261 260 260 260 259 258 257 256 255 255 254 255 257 258 257 257 258 257 257 257 256 257 259 261 261 261 262 264 265 264 261 259 259 258 256 253 252 252 253 253 253 253 252 251 250 250 250 250
6 6 7 7 7 9 11 13 15 17 18 19 22 25 28 28 28 32 35 35 35 32 29 29 29 26 22 16 9 0 354 349 335 319 306 292 281 274 270 268 268 266 265 264 263 262 261 261 260 260 258 257 257 259 260 260 261 260 260 260 261 261 261 262 263 263 264 266 267 267 266 263 261 260 260 258 256 256 255 254 255 255 254 253 252 251 250 250
4 4 3 3 3 3 4 6 8 10 11 12 13 14 17 20 21 23 27 30 30 26 21 15 14 13 5 358 353 344 337 332 324 319 314 308 301 292 283 279 277 275 275 274 271 268 267 265 264 263 261 259 258 259 261 263 265 265 265 263 263 263 263 263 263 263 265 266 267 266 267 266 264 262 262 260 259 259 258 257 257 258 257 257 256 255 253 252
1 1 0 360 359 358 358 359 360 2 4 5 5 5 5 6 8 11 15 20 22 19 14 8 5 2 354 349 343 331 322 315 308 304 299 295 292 290 288 285 282 281 279 276 276 277 276 274 272 269 267 266 265 264 265 265 266 267 268 267 266 265 265 264 264 265 266 267 267 266 266 267 266 265 264 264 263 263 263 263 262 261 261 260 260 259 258 256
Height
5604 5602 5600 5598 5598 5598 5599 5600 5603 5606 5611 5616 5621 5627 5632 5637 5642 5648 5653 5658 5662 5666 5671 5675 5680 5684 5689 5694 5699 5705 5710 5715 5721 5726 5733 5742 5745 5745 5747 5750 5753 5759 5764 5767 5771 5774 5777 5781 5784 5788 5791 5794 5797 5800 5802 5804 5807 5808 5809 5811 5816 5820 5823 5825 5826 5826 5826 5827 5827 5827 5829 5832 5834 5835 5836 5838 5839 5841 5843 5844 5845 5846 5846 5847 5847 5848 5849 5850
5601 5599 5597 5595 5593 5593 5593 5594 5596 5598 5602 5607 5612 5618 5623 5629 5635 5640 5645 5650 5655 5660 5664 5669 5673 5678 5682 5687 5692 5698 5703 5709 5714 5722 5732 5736 5738 5740 5742 5744 5748 5753 5758 5761 5765 5769 5772 5775 5779 5783 5786 5790 5793 5796 5798 5801 5803 5804 5805 5808 5813 5817 5820 5822 5822 5821 5821 5822 5824 5825 5826 5829 5832 5832 5834 5835 5836 5839 5841 5842 5843 5844 5844 5845 5845 5846 5847 5848
5598 5596 5594 5592 5590 5589 5589 5589 5590 5591 5594 5598 5603 5608 5614 5620 5626 5631 5637 5642 5648 5653 5658 5662 5667 5671 5676 5680 5685 5690 5697 5702 5709 5721 5728 5728 5731 5735 5737 5739 5743 5747 5752 5756 5760 5763 5767 5770 5774 5778 5781 5785 5788 5791 5794 5796 5799 5800 5802 5805 5810 5814 5816 5818 5817 5816 5817 5819 5822 5823 5824 5827 5829 5830 5831 5832 5833 5836 5839 5840 5841 5842 5842 5843 5844 5844 5845 5846
5595 5593 5591 5589 5587 5586 5585 5584 5585 5586 5587 5590 5595 5600 5605 5611 5617 5623 5629 5635 5641 5646 5651 5656 5660 5665 5670 5674 5678 5684 5690 5696 5706 5718 5719 5719 5724 5728 5732 5734 5737 5742 5746 5750 5754 5758 5762 5766 5769 5773 5776 5780 5784 5787 5790 5792 5794 5796 5799 5803 5808 5810 5811 5813 5813 5813 5815 5817 5819 5820 5821 5824 5826 5828 5829 5830 5832 5834 5836 5837 5839 5840 5840 5842 5842 5843 5843 5844
5591 5590 5588 5586 5584 5583 5581 5581 5581 5581 5582 5584 5587 5592 5597 5603 5609 5615 5622 5628 5634 5639 5645 5649 5654 5658 5663 5668 5673 5677 5683 5691 5703 5710 5710 5712 5717 5721 5726 5729 5731 5736 5739 5744 5749 5753 5757 5762 5765 5769 5772 5776 5779 5782 5786 5789 5790 5792 5796 5801 5805 5806 5807 5809 5810 5810 5812 5815 5817 5817 5818 5821 5823 5826 5827 5828 5830 5831 5833 5834 5836 5837 5839 5840 5841 5841 5841 5842
5588 5587 5585 5584 5582 5580 5578 5577 5577 5577 5578 5579 5581 5585 5589 5595 5601 5607 5614 5620 5626 5632 5637 5643 5647 5652 5657 5661 5666 5671 5678 5688 5696 5701 5703 5705 5710 5715 5720 5723 5727 5730 5733 5738 5744 5748 5752 5757 5761 5764 5768 5772 5775 5779 5782 5784 5785 5789 5793 5797 5800 5801 5803 5805 5806 5807 5809 5812 5814 5815 5816 5818 5820 5823 5825 5827 5828 5829 5829 5831 5833 5835 5836 5838 5839 5839 5839 5841
5585 5584 5582 5581 5579 5578 5576 5574 5574 5574 5574 5575 5577 5579 5583 5588 5593 5599 5606 5612 5619 5625 5630 5636 5641 5645 5650 5654 5660 5665 5673 5684 5688 5691 5696 5699 5704 5710 5714 5718 5722 5725 5729 5733 5739 5745 5748 5752 5757 5760 5763 5767 5771 5775 5777 5779 5782 5785 5790 5793 5796 5797 5800 5801 5802 5804 5806 5808 5810 5812 5814 5815 5817 5820 5822 5825 5826 5826 5827 5829 5831 5832 5833 5835 5836 5837 5838 5839
5582 5581 5580 5579 5577 5575 5574 5572 5571 5570 5570 5571 5572 5574 5577 5582 5586 5592 5598 5605 5612 5618 5624 5629 5633 5639 5643 5648 5654 5659 5670 5681 5682 5683 5689 5692 5698 5703 5708 5713 5716 5721 5725 5729 5735 5741 5744 5747 5752 5756 5758 5762 5767 5770 5772 5775 5778 5783 5787 5790 5791 5793 5797 5797 5797 5801 5803 5805 5807 5810 5812 5813 5815 5816 5819 5823 5824 5823 5824 5826 5828 5829 5830 5832 5833 5834 5836 5836
5579 5579 5578 5576 5575 5574 5572 5570 5568 5568 5567 5567 5568 5570 5572 5576 5581 5586 5591 5598 5605 5611 5617 5622 5627 5633 5637 5643 5648 5656 5671 5677 5674 5675 5680 5685 5692 5697 5703 5707 5711 5716 5720 5725 5729 5735 5740 5744 5748 5751 5754 5758 5761 5764 5767 5770 5775 5780 5783 5784 5786 5789 5792 5793 5794 5797 5800 5801 5804 5807 5810 5811 5813 5813 5817 5820 5821 5821 5822 5823 5826 5826 5827 5828 5828 5830 5832 5834
5578 5577 5576 5574 5573 5572 5570 5568 5567 5566 5565 5565 5565 5566 5568 5571 5575 5579 5585 5592 5598 5604 5610 5615 5622 5626 5632 5638 5643 5655 5669 5666 5663 5668 5672 5680 5688 5692 5697 5702 5707 5711 5715 5720 5724 5730 5737 5741 5743 5745 5749 5752 5756 5759 5761 5766 5772 5776 5778 5779 5781 5784 5787 5789 5790 5793 5796 5798 5800 5803 5806 5809 5809 5810 5815 5818 5818 5819 5820 5820 5823 5824 5824 5825 5825 5827 5829 5831
5576 5575 5574 5573 5571 5570 5569 5567 5565 5564 5563 5562 5561 5562 5564 5567 5569 5573 5579 5585 5591 5597 5603 5609 5615 5620 5627 5632 5638 5654 5663 5657 5658 5664 5668 5676 5683 5686 5692 5696 5701 5706 5711 5716 5720 5727 5733 5736 5740 5742 5744 5748 5752 5754 5755 5760 5767 5770 5772 5775 5777 5779 5782 5785 5787 5790 5792 5794 5797 5799 5802 5804 5804 5808 5815 5816 5814 5816 5817 5817 5819 5821 5822 5823 5824 5824 5826 5828
5575 5573 5572 5571 5569 5568 5567 5565 5563 5562 5561 5559 5559 5559 5560 5562 5565 5568 5573 5579 5585 5590 5597 5604 5608 5614 5620 5624 5637 5653 5655 5650 5654 5659 5664 5671 5676 5681 5686 5691 5696 5701 5707 5712 5716 5722 5727 5732 5738 5741 5740 5743 5748 5750 5751 5755 5759 5763 5766 5770 5772 5774 5778 5782 5785 5787 5787 5790 5794 5795 5797 5800 5801 5807 5814 5812 5810 5811 5813 5814 5815 5817 5819 5820 5821 5822 5823 5825
5573 5572 5570 5569 5567 5566 5565 5563 5562 5560 5559 5558 5557 5557 5557 5558 5560 5564 5568 5573 5578 5584 5592 5597 5602 5608 5612 5621 5637 5647 5645 5644 5649 5655 5660 5664 5670 5677 5681 5686 5691 5696 5702 5708 5712 5716 5721 5727 5733 5736 5736 5739 5742 5744 5747 5749 5752 5756 5760 5763 5767 5770 5775 5780 5781 5783 5784 5787 5790 5789 5792 5797 5800 5805 5809 5807 5805 5806 5808 5811 5812 5813 5815 5817 5819 5819 5820 5821
5572 5570 5569 5567 5566 5564 5563 5561 5560 5559 5557 5556 5555 5555 5555 5555 5556 5559 5563 5568 5573 5579 5585 5590 5596 5602 5607 5621 5634 5637 5636 5639 5646 5652 5655 5659 5666 5671 5676 5680 5686 5692 5697 5702 5706 5710 5715 5722 5727 5730 5733 5736 5737 5741 5743 5743 5746 5750 5752 5756 5761 5767 5773 5776 5776 5778 5780 5783 5786 5784 5786 5794 5797 5800 5803 5802 5801 5803 5805 5808 5809 5810 5811 5813 5815 5816 5817 5818
5570 5568 5567 5566 5564 5562 5561 5560 5558 5557 5556 5554 5554 5553 5553 5553 5554 5556 5559 5563 5569 5574 5578 5584 5591 5596 5605 5618 5626 5628 5630 5636 5643 5647 5649 5655 5661 5666 5671 5675 5680 5687 5691 5695 5700 5705 5710 5716 5721 5725 5730 5732 5733 5736 5738 5738 5741 5743 5746 5751 5756 5763 5769 5771 5771 5773 5775 5778 5779 5778 5780 5789 5793 5795 5797 5797 5798 5799 5801 5804 5806 5806 5807 5809 5811 5813 5814 5815
5568 5567 5565 5564 5563 5561 5560 5558 5556 5555 5554 5553 5552 5551 5551 5551 5552 5553 5555 5559 5563 5568 5573 5579 5586 5593 5603 5614 5619 5621 5626 5633 5639 5642 5645 5651 5656 5661 5666 5670 5677 5683 5686 5690 5695 5700 5705 5709 5715 5720 5725 5727 5728 5732 5734 5735 5736 5737 5743 5748 5753 5758 5762 5765 5767 5768 5770 5771 5772 5773 5775 5784 5790 5790 5792 5793 5794 5795 5797 5800 5802 5802 5803 5805 5807 5808 5810 5812
5567 5565 5564 5563 5561 5559 5558 5556 5555 5554 5552 5551 5550 5549 5549 5549 5550 5550 5552 5555 5558 5562 5567 5575 5582 5589 5600 5609 5613 5617 5622 5628 5633 5636 5641 5645 5650 5656 5662 5667 5673 5678 5682 5686 5688 5693 5698 5703 5708 5714 5718 5721 5725 5727 5728 5728 5731 5736 5741 5745 5749 5752 5755 5759 5761 5762 5764 5763 5766 5768 5770 5779 5786 5787 5787 5789 5790 5791 5792 5795 5798 5798 5799 5800 5802 5804 5806 5808
5565 5564 5563 5561 5559 5558 5556 5555 5554 5552 5551 5549 5549 5548 5547 5547 5548 5548 5549 5551 5555 5558 5564 5571 5577 5586 5596 5603 5607 5611 5616 5622 5626 5632 5636 5640 5645 5651 5657 5662 5667 5672 5677 5680 5683 5687 5692 5697 5702 5707 5712 5716 5720 5720 5722 5727 5733 5737 5739 5742 5745 5745 5748 5751 5753 5756 5757 5757 5761 5764 5766 5773 5780 5782 5783 5784 5784 5786 5787 5791 5793 5794 5795 5797 5798 5800 5803 5804
5562 5561 5561 5560 5558 5557 5555 5554 5552 5551 5549 5548 5547 5546 5545 5545 5545 5546 5547 5549 5552 5556 5561 5567 5573 5583 5592 5597 5602 5605 5611 5617 5621 5628 5632 5636 5641 5647 5652 5657 5662 5667 5671 5674 5679 5682 5687 5691 5694 5699 5706 5713 5716 5719 5725 5729 5731 5732 5734 5735 5737 5738 5741 5744 5746 5751 5752 5752 5757 5760 5762 5768 5774 5776 5778 5779 5779 5781 5783 5785 5788 5790 5791 5793 5795 5796 5799 5802
5559 5559 5558 5558 5557 5555 5554 5552 5551 5549 5548 5546 5545 5544 5544 5543 5543 5543 5545 5547 5550 5552 5557 5563 5569 5578 5585 5590 5595 5600 5605 5611 5617 5623 5627 5631 5637 5642 5646 5651 5656 5661 5665 5671 5675 5678 5681 5684 5688 5695 5705 5713 5715 5719 5723 5723 5724 5727 5727 5727 5730 5732 5736 5739 5741 5745 5747 5747 5752 5755 5758 5762 5768 5771 5773 5775 5775 5777 5779 5781 5784 5786 5788 5791 5792 5793 5795 5798
5556 5556 5556 5556 5555 5554 5553 5551 5550 5548 5547 5545 5544 5543 5542 5541 5541 5542 5543 5545 5547 5550 5555 5559 5565 5573 5579 5584 5589 5593 5599 5605 5613 5618 5622 5627 5633 5637 5642 5646 5652 5656 5662 5667 5670 5673 5676 5677 5685 5696 5705 5708 5709 5714 5717 5717 5720 5721 5721 5723 5726 5728 5733 5736 5736 5739 5742 5742 5746 5750 5751 5755 5761 5765 5769 5771 5772 5774 5776 5778 5780 5783 5785 5787 5789 5790 5792 5795
5554 5554 5554 5554 5553 5553 5552 5550 5549 5548 5546 5544 5543 5542 5541 5540 5540 5540 5542 5544 5546 5549 5552 5556 5563 5569 5575 5580 5583 5588 5595 5602 5609 5614 5618 5625 5629 5635 5639 5644 5649 5654 5659 5662 5665 5668 5670 5675 5686 5694 5698 5699 5702 5708 5710 5712 5715 5715 5717 5720 5721 5726 5730 5731 5733 5735 5736 5737 5742 5744 5744 5748 5753 5758 5763 5766 5768 5770 5772 5774 5777 5779 5781 5784 5786 5787 5789 5791
5554 5553 5552 5552 5552 5551 5551 5549 5548 5547 5545 5543 5542 5541 5540 5539 5540 5540 5541 5543 5545 5548 5551 5554 5560 5565 5570 5576 5579 5584 5591 5598 5605 5611 5616 5622 5627 5632 5636 5641 5646 5650 5654 5657 5661 5664 5667 5676 5684 5686 5689 5693 5696 5700 5703 5706 5708 5711 5714 5715 5718 5723 5724 5726 5730 5731 5730 5732 5735 5737 5737 5740 5745 5751 5758 5763 5764 5766 5768 5771 5773 5775 5777 5780 5782 5783 5785 5787
5554 5552 5551 5551 5550 5550 5550 5549 5547 5546 5544 5543 5542 5541 5540 5539 5540 5540 5541 5542 5544 5546 5549 5552 5557 5561 5566 5571 5575 5580 5587 5594 5601 5608 5613 5618 5623 5628 5633 5638 5641 5645 5650 5655 5659 5661 5666 5675 5679 5680 5684 5687 5688 5692 5697 5700 5702 5707 5710 5712 5715 5718 5719 5723 5726 5724 5725 5725 5727 5730 5728 5731 5740 5744 5751 5758 5759 5760 5764 5766 5769 5770 5773 5775 5777 5778 5780 5781
5554 5552 5551 5550 5550 5549 5549 5548 5547 5546 5544 5543 5542 5541 5540 5540 5540 5541 5542 5543 5544 5545 5548 5552 5556 5559 5563 5567 5573 5579 5585 5591 5598 5605 5610 5616 5620 5625 5631 5634 5636 5642 5648 5652 5654 5657 5664 5670 5673 5676 5678 5679 5682 5687 5692 5695 5699 5702 5705 5709 5712 5713 5715 5718 5719 5719 5719 5719 5723 5725 5719 5723 5735 5736 5742 5752 5753 5755 5759 5760 5764 5767 5768 5770 5772 5774 5776 5777
5554 5552 5551 5550 5549 5549 5548 5548 5547 5545 5544 5543 5542 5541 5540 5540 5540 5541 5542 5543 5544 5546 5548 5551 5554 5557 5561 5567 5573 5577 5582 5588 5595 5601 5607 5613 5618 5622 5626 5629 5633 5640 5644 5647 5648 5653 5661 5665 5668 5670 5671 5674 5677 5682 5686 5690 5693 5696 5701 5707 5708 5708 5710 5712 5713 5712 5712 5715 5720 5718 5712 5717 5726 5729 5737 5745 5747 5752 5755 5756 5761 5764 5764 5765 5767 5769 5772 5773
5555 5553 5552 5551 5550 5549 5549 5548 5547 5545 5544 5543 5542 5542 5541 5540 5541 5542 5543 5545 5546 5547 5548 5551 5554 5558 5562 5568 5571 5574 5581 5588 5593 5598 5604 5610 5614 5618 5622 5627 5632 5636 5639 5641 5644 5651 5659 5661 5663 5665 5667 5669 5672 5677 5683 5686 5687 5691 5698 5701 5700 5703 5705 5705 5705 5704 5706 5711 5711 5710 5711 5711 5715 5726 5734 5736 5740 5747 5750 5752 5757 5759 5760 5761 5762 5764 5766 5767
5557 5555 5553 5552 5551 5550 5549 5548 5547 5546 5544 5544 5543 5542 5541 5541 5542 5543 5544 5545 5546 5547 5548 5551 5554 5557 5561 5566 5569 5574 5582 5587 5592 5597 5602 5607 5612 5615 5619 5624 5628 5633 5636 5638 5643 5651 5655 5655 5657 5659 5662 5664 5669 5676 5680 5680 5681 5688 5692 5692 5695 5698 5697 5697 5698 5698 5703 5703 5699 5705 5712 5706 5707 5723 5730 5728 5732 5740 5745 5749 5751 5753 5754 5755 5757 5758 5759 5761
5560 5557 5555 5554 5553 5552 5550 5549 5547 5546 5545 5544 5543 5542 5542 5542 5543 5544 5544 5546 5547 5547 5549 5551 5554 5557 5560 5564 5569 5574 5580 5584 5590 5596 5600 5605 5609 5613 5618 5622 5626 5630 5632 5635 5642 5647 5647 5649 5652 5654 5657 5661 5668 5672 5672 5673 5677 5683 5685 5686 5690 5691 5691 5693 5692 5695 5699 5692 5692 5704 5709 5702 5703 5715 5722 5722 5727 5734 5740 5742 5743 5746 5747 5747 5749 5750 5752 5754
5562 5559 5558 5556 5554 5553 5551 5549 5547 5546 5545 5545 5544 5544 5544 5544 5544 5545 5546 5547 5548 5549 5550 5552 5554 5556 5560 5564 5569 5573 5578 5582 5588 5594 5598 5603 5608 5613 5616 5621 5624 5627 5629 5632 5637 5639 5640 5645 5648 5650 5653 5657 5663 5665 5665 5668 5672 5677 5680 5681 5685 5684 5686 5689 5687 5692 5691 5681 5688 5702 5704 5700 5696 5705 5715 5718 5723 5730 5732 5734 5736 5738 5739 5739 5742 5742 5743 5745
5564 5561 5559 5558 5556 5554 5552 5550 5548 5547 5547 5546 5546 5546 5546 5546 5546 5547 5548 5548 5549 5550 5551 5552 5554 5557 5561 5564 5568 5573 5577 5582 5587 5592 5596 5602 5607 5611 5614 5617 5621 5623 5625 5629 5633 5635 5636 5640 5643 5647 5650 5653 5658 5659 5662 5665 5668 5673 5676 5678 5680 5679 5682 5683 5682 5686 5680 5676 5688 5698 5698 5692 5685 5696 5710 5713 5719 5725 5726 5727 5730 5731 5732 5733 5733 5734 5735 5736
5566 5563 5561 5559 5557 5556 5554 5552 5551 5549 5548 5548 5548 5548 5548 5548 5549 5549 5549 5549 5550 5551 5552 5553 5555 5558 5561 5564 5568 5572 5577 5581 5586 5590 5594 5598 5603 5607 5610 5614 5618 5620 5622 5627 5630 5631 5633 5637 5641 5644 5646 5649 5653 5655 5658 5661 5664 5668 5671 5673 5674 5675 5677 5676 5676 5677 5674 5677 5688 5691 5689 5682 5677 5692 5706 5711 5716 5718 5719 5723 5725 5725 5725 5725 5726 5728 5729 5729
5569 5566 5563 5561 5559 5558 5556 5555 5553 5552 5551 5551 5551 5551 5550 5550 5551 5551 5551 5551 5552 5553 5553 5555 5557 5559 5562 5565 5568 5572 5576 5580 5584 5589 5593 5596 5599 5604 5608 5612 5615 5617 5620 5624 5626 5627 5630 5634 5637 5640 5643 5647 5649 5651 5655 5657 5660 5663 5665 5668 5669 5670 5671 5670 5671 5672 5671 5676 5684 5684 5680 5672 5674 5689 5702 5710 5710 5706 5711 5718 5718 5718 5718 5719 5721 5721 5721 5723
5572 5568 5565 5563 5561 5559 5558 5557 5556 5555 5554 5554 5554 5553 5553 5553 5553 5553 5553 5553 5554 5555 5556 5558 5560 5562 5563 5566 5569 5572 5576 5580 5583 5587 5591 5595 5598 5602 5606 5610 5612 5615 5618 5620 5622 5625 5628 5631 5634 5638 5642 5645 5646 5648 5651 5653 5655 5658 5660 5662 5662 5665 5666 5665 5668 5668 5667 5673 5677 5676 5670 5664 5674 5689 5696 5702 5702 5698 5705 5709 5706 5708 5711 5712 5713 5712 5715 5718
5575 5571 5568 5565 5563 5561 5560 5559 5558 5558 5557 5556 5556 5555 5555 5555 5555 5555 5556 5556 5557 5558 5559 5560 5562 5564 5565 5567 5570 5573 5576 5580 5583 5587 5590 5593 5596 5600 5603 5605 5608 5612 5615 5617 5620 5622 5625 5628 5632 5635 5638 5641 5643 5644 5646 5647 5649 5653 5656 5655 5656 5660 5662 5661 5662 5663 5665 5667 5666 5665 5663 5663 5675 5684 5685 5692 5696 5694 5696 5697 5695 5698 5701 5702 5705 5709 5711 5712
5578 5575 5571 5568 5565 5563 5562 5561 5560 5560 5559 5559 5558 5558 5557 5557 5557 5557 5558 5559 5559 5560 5561 5563 5564 5565 5566 5568 5570 5573 5576 5580 5583 5587 5590 5592 5595 5597 5600 5602 5606 5609 5612 5615 5617 5619 5622 5626 5629 5631 5634 5637 5638 5639 5640 5642 5644 5648 5649 5650 5653 5657 5658 5655 5656 5659 5660 5656 5655 5658 5660 5663 5671 5674 5675 5684 5690 5689 5686 5685 5686 5688 5692 5694 5699 5703 5704 5704
5581 5578 5574 5571 5568 5566 5564 5563 5562 5561 5561 5561 5560 5560 5560 5559 5559 5559 5560 5562 5562 5562 5563 5565 5566 5567 5568 5570 5571 5574 5577 5579 5582 5586 5589 5591 5593 5596 5599 5601 5604 5607 5609 5611 5613 5616 5620 5624 5626 5628 5631 5632 5634 5634 5635 5637 5639 5641 5644 5648 5650 5650 5651 5651 5650 5653 5653 5647 5648 5653 5655 5659 5663 5664 5668 5676 5682 5682 5679 5677 5677 5680 5685 5687 5688 5691 5694 5695
5584 5581 5578 5575 5572 5569 5567 5565 5564 5563 5563 5563 5562 5563 5562 5561 5561 5562 5563 5564 5565 5565 5566 5567 5568 5569 5570 5571 5573 5575 5577 5579 5582 5585 5588 5590 5593 5595 5598 5600 5603 5605 5607 5609 5611 5614 5617 5620 5622 5625 5627 5628 5629 5630 5631 5634 5635 5637 5640 5644 5644 5642 5644 5646 5644 5645 5646 5642 5643 5647 5648 5651 5654 5657 5662 5669 5673 5674 5671 5670 5671 5672 5675 5677 5678 5680 5682 5685
5587 5584 5582 5579 5575 5573 5570 5568 5566 5565 5565 5564 5565 5564 5564 5564 5564 5565 5566 5566 5567 5567 5568 5569 5570 5571 5572 5573 5574 5576 5578 5580 5582 5585 5587 5590 5592 5595 5597 5598 5600 5603 5605 5607 5609 5611 5613 5616 5618 5621 5623 5624 5625 5627 5630 5632 5632 5633 5636 5638 5638 5638 5640 5640 5639 5640 5641 5638 5638 5640 5641 5643 5648 5653 5658 5661 5663 5663 5662 5664 5665 5665 5666 5669 5670 5670 5671 5674
5590 5588 5585 5582 5579 5577 5574 5571 5570 5568 5567 5567 5567 5566 5566 5567 5567 5567 5568 5569 5569 5570 5570 5571 5572 5572 5573 5575 5576 5577 5579 5581 5583 5585 5587 5589 5591 5594 5595 5597 5599 5601 5604 5605 5607 5609 5610 5612 5615 5617 5618 5620 5622 5624 5626 5627 5627 5629 5632 5633 5633 5635 5636 5635 5633 5635 5636 5633 5633 5634 5633 5637 5643 5647 5651 5653 5654 5654 5655 5658 5659 5658 5659 5660 5661 5662 5664 5665
5593 5590 5587 5585 5583 5580 5578 5575 5573 5572 5570 5569 5569 5568 5568 5568 5569 5569 5570 5570 5571 5572 5572 5573 5573 5574 5575 5576 5577 5579 5580 5582 5584 5585 5586 5588 5590 5592 5593 5595 5598 5600 5602 5604 5605 5607 5607 5608 5611 5613 5615 5617 5619 5620 5622 5622 5622 5624 5626 5627 5628 5630 5631 5628 5626 5629 5631 5628 5628 5627 5625 5631 5638 5638 5640 5645 5647 5648 5648 5649 5651 5652 5652 5652 5653 5654 5655 5656
5596 5593 5590 5588 5586 5583 5581 5579 5577 5575 5573 5572 5571 5570 5570 5570 5571 5571 5571 5572 5572 5573 5574 5574 5575 5576 5576 5577 5578 5580 5581 5582 5583 5584 5586 5587 5589 5590 5592 5594 5596 5598 5600 5602 5603 5604 5605 5606 5608 5610 5612 5615 5615 5616 5617 5617 5618 5619 5620 5621 5623 5623 5623 5622 5620 5623 5624 5622 5623 5622 5617 5621 5629 5631 5632 5636 5640 5642 5642 5641 5643 5646 5645 5645 5645 5645 5646 5647
5599 5596 5593 5590 5588 5586 5584 5582 5580 5578 5576 5575 5574 5573 5572 5572 5572 5573 5573 5573 5573 5574 5575 5576 5577 5577 5578 5579 5579 5581 5582 5582 5583 5584 5585 5587 5588 5589 5591 5592 5594 5596 5597 5599 5600 5602 5603 5604 5605 5607 5609 5611 5611 5611 5613 5613 5613 5613 5614 5616 5617 5616 5617 5617 5615 5616 5616 5614 5618 5616 5608 5612 5622 5625 5626 5628 5630 5633 5634 5634 5635 5637 5638 5638 5637 5636 5636 5636
5601 5598 5596 5593 5591 5589 5587 5585 5583 5582 5580 5578 5577 5575 5575 5574 5574 5574 5574 5574 5574 5575 5576 5577 5578 5578 5579 5579 5580 5581 5582 5583 5584 5584 5585 5586 5587 5589 5590 5591 5592 5593 5595 5596 5597 5599 5599 5600 5602 5603 5604 5606 5607 5608 5608 5608 5608 5608 5608 5610 5610 5611 5611 5610 5610 5610 5606 5606 5612 5608 5601 5608 5618 5619 5620 5622 5622 5624 5626 5628 5628 5629 5630 5630 5629 5628 5627 5627
5602 5600 5598 5596 5594 5591 5589 5587 5586 5584 5583 5581 5579 5578 5577 5576 5576 5576 5575 5575 5575 5575 5576 5577 5578 5578 5579 5579 5580 5581 5582 5583 5583 5584 5585 5586 5587 5588 5589 5590 5590 5591 5592 5593 5594 5596 5596 5597 5598 5599 5599 5601 5603 5603 5603 5603 5602 5603 5604 5605 5604 5605 5604 5602 5603 5602 5597 5600 5605 5600 5596 5605 5613 5615 5616 5617 5616 5616 5619 5620 5621 5621 5622 5622 5621 5620 5619 5619
5604 5602 5600 5598 5596 5594 5592 5590 5588 5586 5585 5583 5582 5581 5580 5579 5578 5577 5577 5577 5577 5576 5577 5577 5577 5578 5578 5579 5580 5581 5581 5582 5583 5583 5584 5585 5586 5587 5587 5588 5588 5589 5590 5590 5591 5592 5592 5593 5594 5594 5595 5597 5598 5598 5598 5597 5597 5598 5599 5599 5599 5598 5597 5596 5594 5593 5595 5596 5594 5594 5596 5600 5606 5612 5612 5611 5610 5610 5611 5612 5612 5612 5612 5611 5611 5610 5610 5609
5605 5604 5602 5600 5598 5596 5594 5592 5590 5588 5587 5585 5584 5583 5582 5581 5580 5579 5579 5578 5578 5578 5578 5578 5578 5578 5578 5579 5579 5580 5580 5581 5582 5583 5583 5584 5585 5585 5585 5586 5587 5587 5587 5588 5588 5589 5589 5590 5589 5590 5592 5593 5594 5594 5593 5591 5591 5592 5591 5592 5592 5592 5591 5589 5587 5590 5595 5588 5582 5593 5598 5592 5595 5605 5606 5605 5605 5604 5603 5604 5603 5602 5601 5601 5600 5600 5599 5598
5606 5604 5603 5601 5599 5597 5595 5594 5592 5590 5589 5587 5586 5584 5583 5582 5582 5581 5580 5580 5579 5579 5579 5578 5578 5578 5578 5578 5579 5579 5579 5580 5580 5581 5581 5582 5583 5583 5584 5584 5585 5585 5585 5585 5585 5586 5586 5586 5586 5587 5589 5590 5590 5590 5587 5585 5584 5584 5585 5586 5588 5587 5585 5585 5585 5588 5589 5579 5576 5588 5591 5583 5585 5593 5595 5598 5600 5597 5595 5593 5591 5590 5590 5590 5589 5587 5585 5585
5606 5605 5603 5601 5600 5598 5597 5595 5594 5592 5591 5589 5588 5586 5585 5584 5583 5582 5581 5581 5580 5580 5579 5579 5579 5579 5579 5578 5578 5578 5578 5579 5579 5579 5580 5580 5581 5581 5581 5581 5582 5582 5582 5582 5582 5583 5582 5583 5584 5584 5585 5586 5586 5583 5580 5579 5578 5578 5580 5581 5582 5583 5583 5582 5582 5584 5581 5573 5572 5578 5576 5573 5578 5583 5585 5588 5588 5584 5581 5579 5577 5577 5577 5577 5576 5574 5574 5574
5606 5605 5603 5601 5600 5599 5597 5596 5594 5593 5592 5590 5589 5588 5586 5585 5584 5583 5582 5581 5581 5580 5580 5579 5579 5579 5579 5578 5578 5578 5578 5578 5578 5578 5578 5578 5579 5579 5579 5578 5578 5578 5578 5578 5578 5578 5578 5579 5579 5579 5580 5581 5579 5576 5574 5573 5572 5572 5575 5577 5579 5579 5579 5577 5576 5575 5571 5566 5566 5567 5561 5562 5572 5576 5573 5572 5570 5567 5566 5566 5567 5567 5567 5566 5565 5564 5565 5566
5606 5605 5603 5601 5600 5599 5597 5596 5595 5593 5592 5591 5590 5588 5587 5586 5585 5584 5583 5582 5581 5580 5580 5579 5579 5579 5579 5578 5578 5578 5578 5577 5577 5577 5577 5577 5577 5577 5576 5576 5576 5575 5575 5574 5573 5574 5573 5573 5574 5574 5573 5572 5571 5571 5570 5569 5568 5567 5570 5573 5574 5572 5569 5568 5566 5564 5562 5559 5558 5556 5552 5554 5564 5565 5559 5557 5557 5556 5558 5559 5559 5558 5558 5558 5557 5557 5558 5560
5606 5604 5603 5601 5600 5598 5597 5596 5595 5593 5592 5591 5590 5588 5587 5586 5585 5584 5583 5582 5581 5580 5580 5579 5578 5578 5577 5577 5577 5577 5577 5576 5576 5576 5576 5575 5575 5575 5574 5574 5574 5573 5573 5571 5570 5570 5569 5569 5570 5568 5565 5564 5564 5567 5568 5566 5563 5562 5563 5564 5564 5562 5559 5558 5557 5558 5557 5553 5548 5545 5545 5548 5551 5551 5549 5550 5550 5551 5552 5550 5547 5547 5549 5549 5548 5547 5548 5550